GEFSSGP_500_meanwind_252.txt.gz
Wind_Speed
3 3 3 3 3 4 4 4 4 5 5 5 5 4 4 5 4 4 4 4 4 4 4 3 3 2 2 2 2 2 3 2 2 2 2 2 2 1 1 0 0 0 0 1 1 1 1 2 2
3 3 3 3 3 4 4 4 4 4 4 4 4 4 3 4 4 4 3 3 3 3 3 3 2 2 2 1 1 2 2 1 2 2 1 1 1 1 1 2 2 1 1 1 2 2 2 3 3
3 3 3 4 4 3 3 3 3 4 4 4 3 3 3 3 3 3 2 2 3 3 2 2 2 3 2 2 2 2 1 1 2 2 2 2 3 3 2 2 3 3 3 2 2 3 3 4 4
3 3 4 5 5 4 4 4 4 4 4 4 3 3 3 3 3 2 2 2 2 3 2 2 2 3 3 3 3 2 2 3 3 4 3 4 4 4 3 4 4 4 4 4 4 4 4 5 5
3 4 4 5 5 5 5 5 5 5 5 4 4 3 4 3 4 3 3 3 3 3 3 4 3 3 3 3 3 3 3 4 4 4 4 4 4 3 4 4 4 5 5 5 4 5 5 5 5
4 5 5 5 5 6 6 6 6 6 6 5 5 5 5 5 5 4 4 5 4 5 5 5 4 4 4 4 4 4 4 5 4 4 4 5 5 5 5 5 5 6 6 5 5 6 5 6 6
4 5 5 5 6 6 6 6 7 7 7 7 6 5 5 6 6 5 5 5 5 6 6 6 6 6 6 6 6 6 6 5 5 5 5 6 6 6 6 7 7 7 7 7 7 7 7 7 7
4 5 5 6 6 6 6 7 7 7 7 7 7 7 7 7 7 7 6 6 6 6 6 7 7 7 7 7 7 7 7 6 7 7 7 7 7 7 7 7 7 7 8 8 8 8 8 7 7
4 4 5 6 6 6 7 7 7 8 8 8 8 8 8 8 8 8 7 7 7 7 7 8 8 8 8 8 8 8 8 8 8 8 8 8 8 8 8 8 8 8 9 9 9 9 8 8 8
4 4 5 6 6 7 7 7 8 8 8 9 9 9 9 9 9 9 9 9 9 8 8 8 9 9 9 9 8 9 9 9 8 9 9 9 9 9 9 10 10 10 10 9 9 9 9 9 9
5 5 5 6 6 6 7 8 8 8 9 9 10 10 9 9 9 9 10 9 9 9 9 9 9 9 9 10 10 10 9 9 9 9 9 9 9 10 10 11 11 11 10 10 9 9 9 9 9
5 5 6 6 6 7 7 8 8 9 9 10 10 10 10 10 10 10 10 10 10 10 10 9 9 9 10 10 10 10 10 10 10 10 10 10 10 10 10 11 12 12 11 10 10 10 9 9 9
6 6 6 6 7 7 8 8 9 10 10 10 11 10 10 10 10 10 10 10 10 10 10 10 10 11 11 11 11 11 11 11 11 11 11 11 11 11 11 11 12 12 12 10 10 10 10 9 9
6 6 7 7 8 8 8 9 9 10 10 11 11 11 11 11 11 11 11 11 11 11 11 11 11 12 12 12 12 12 11 12 12 12 12 11 11 11 11 11 11 12 12 11 10 10 10 9 9
7 7 8 8 8 8 9 10 10 10 11 11 12 12 12 12 12 12 12 12 12 12 11 11 12 12 13 12 12 12 12 12 12 12 12 12 12 12 12 12 12 12 11 11 10 10 10 10 9
7 7 8 9 9 9 9 10 11 11 11 12 12 12 12 12 12 12 12 12 12 12 12 12 12 13 13 13 13 13 13 13 12 12 12 12 12 12 13 12 12 12 11 11 10 11 10 10 10
7 8 9 9 9 10 10 11 12 11 12 12 12 12 13 13 13 12 12 13 13 12 12 12 13 13 13 13 13 13 13 13 13 13 13 13 13 13 13 13 13 12 10 10 10 10 11 11 11
7 8 9 9 9 10 10 11 12 12 12 12 12 13 13 13 13 13 13 13 13 13 13 12 13 13 13 13 14 14 14 13 13 13 14 13 13 13 13 13 12 12 11 11 11 11 11 11 11
8 8 9 10 10 10 10 11 12 12 13 13 13 12 12 13 13 13 13 13 14 14 14 13 13 13 13 13 13 13 13 13 13 13 14 13 13 13 13 12 12 11 11 11 11 12 12 12 12
8 8 9 10 10 10 10 11 11 11 11 12 12 12 12 12 13 13 12 13 13 14 14 14 13 13 13 13 13 13 13 13 13 13 13 13 13 13 12 11 11 11 12 12 12 12 12 12 12
9 9 9 10 10 10 10 10 9 9 10 10 11 12 12 12 12 13 13 13 14 13 13 13 13 13 13 13 13 12 13 13 12 12 12 11 12 12 12 11 11 11 12 12 12 12 12 12 13
9 9 9 10 10 10 10 9 9 9 10 10 11 11 11 12 13 13 13 14 14 14 14 14 14 13 13 13 12 13 12 12 12 11 11 11 12 11 11 10 11 11 11 11 12 12 12 12 12
9 9 9 9 10 10 9 10 10 10 10 10 11 11 12 13 13 14 14 15 15 15 15 15 15 14 14 14 14 13 13 13 13 12 12 12 12 11 11 11 11 11 11 11 11 12 12 12 12
9 9 9 10 10 10 10 11 11 11 11 11 11 12 12 13 14 14 15 15 15 15 15 15 15 15 15 14 14 14 13 13 12 12 12 12 11 10 10 10 11 11 11 12 12 12 12 12 12
9 9 10 10 10 11 12 12 12 12 11 12 12 13 13 14 14 15 15 15 15 15 15 16 16 16 16 15 15 15 14 14 13 13 12 12 11 11 11 11 11 11 12 12 13 14 13 13 12
10 10 10 11 12 13 13 13 12 12 12 12 13 13 13 13 14 15 15 16 16 16 16 16 17 16 15 15 15 15 14 14 14 13 12 12 12 12 12 12 12 13 13 14 14 14 14 13 12
10 11 12 13 13 14 14 13 13 13 13 13 14 14 14 14 14 15 16 16 16 16 16 17 17 17 16 16 16 15 15 14 14 13 13 13 14 14 14 14 14 14 15 15 14 15 15 13 13
12 12 13 14 15 15 15 15 14 13 14 14 15 15 15 15 15 16 16 16 16 17 17 17 16 16 16 16 16 16 15 15 14 14 14 15 14 14 15 16 16 16 16 16 15 15 14 14 14
13 14 14 15 16 16 16 16 15 15 15 15 15 15 16 15 15 16 17 17 17 17 17 18 17 17 17 17 17 16 16 15 15 14 15 15 15 15 16 16 17 16 16 16 16 15 15 15 15
15 15 15 16 17 17 17 17 16 16 16 17 17 17 17 17 17 17 17 17 17 17 17 18 18 17 17 17 17 16 16 16 15 15 16 16 17 17 16 16 17 17 17 16 16 16 16 16 16

GEFSSGP_500_meanwind_258.txt.gz
Wind_Speed
1 2 2 2 2 2 2 0 0 1 1 1 2 2 2 2 2 1 1 1 1 1 1 1 2 2 2 2 2 2 2 2 2 2 2 2 3 3 3 3 3 3 3 3 4 4 4 4 4
2 2 2 3 3 2 2 2 2 2 2 2 2 2 2 2 2 3 2 2 2 2 3 3 3 4 4 3 3 3 2 3 3 3 4 4 4 4 4 4 4 4 4 4 4 5 5 5 5
3 3 3 3 4 3 2 2 2 3 3 3 3 3 3 3 3 4 4 4 4 4 4 5 4 4 4 4 4 4 4 4 4 4 4 4 4 4 4 4 4 4 4 5 5 5 5 6 6
4 4 4 4 4 4 4 3 4 4 4 5 5 4 4 5 5 5 5 5 5 5 5 5 5 5 5 5 4 4 4 5 5 5 5 5 5 5 5 5 6 5 5 6 6 6 6 6 7
4 5 5 5 5 6 5 5 5 6 6 6 6 5 6 6 6 6 7 6 6 6 6 6 6 5 6 6 5 6 6 5 5 5 5 6 6 6 6 6 6 7 7 7 6 6 7 7 7
5 5 5 6 6 6 6 6 7 7 7 7 8 7 7 7 8 7 7 7 7 7 7 6 7 6 6 7 7 7 7 7 6 7 7 7 7 8 7 7 7 7 7 8 7 7 8 8 8
4 5 6 6 7 7 7 8 8 8 8 9 9 9 8 8 8 8 8 8 8 8 7 8 7 8 8 8 8 8 8 7 7 7 8 8 8 9 9 9 9 8 8 8 8 8 9 8 8
5 5 6 7 7 8 8 9 9 9 9 10 10 10 9 9 9 9 9 9 9 8 9 9 8 9 9 8 8 8 7 8 8 9 9 9 10 10 9 9 10 10 10 10 10 10 10 10 9
6 6 7 7 8 8 8 9 10 10 10 11 11 10 10 10 10 10 10 10 10 10 10 10 9 9 9 9 9 8 8 8 9 9 10 10 9 10 10 10 11 11 11 11 11 11 11 10 10
7 7 8 8 9 9 9 10 10 11 11 11 12 11 11 11 11 11 11 11 11 11 11 11 10 11 10 10 10 10 10 10 10 10 10 11 10 10 11 11 12 12 12 12 11 11 11 11 10
7 7 8 8 9 9 9 10 10 11 11 12 12 12 12 12 12 12 11 11 12 12 12 11 11 11 11 11 11 11 11 11 11 11 11 11 11 11 11 11 11 12 12 12 11 11 10 10 10
7 7 8 8 9 9 10 10 11 11 11 12 12 12 12 13 12 12 12 12 12 12 12 11 11 11 11 11 11 10 11 11 11 11 11 11 12 12 12 12 12 12 12 11 11 11 11 10 10
7 7 8 8 9 9 10 11 11 12 12 12 13 13 13 13 13 12 13 13 13 12 12 11 11 11 11 11 11 11 12 12 12 12 12 12 12 13 13 12 13 13 12 12 11 11 11 11 11
8 8 9 9 9 10 11 11 12 12 13 13 13 13 13 13 13 13 13 14 14 13 13 12 13 12 12 12 12 12 13 13 13 13 13 13 13 13 13 13 13 13 12 12 11 10 11 11 11
8 8 9 9 9 10 11 11 12 12 13 14 14 14 13 14 14 14 14 14 14 13 13 13 13 13 14 14 14 14 14 14 14 13 13 13 13 13 13 13 13 13 12 12 12 12 12 11 11
8 9 9 9 10 10 11 12 12 12 13 14 15 15 15 15 14 14 14 15 14 13 13 14 14 14 14 14 15 15 15 14 14 14 14 14 14 14 14 14 13 13 13 12 12 11 11 11 11
8 9 10 10 11 11 11 12 13 13 14 15 15 15 15 15 15 14 15 15 15 14 14 14 15 15 15 15 15 15 15 15 15 14 14 14 14 14 14 14 13 13 13 12 12 12 12 11 11
8 9 10 11 11 12 12 13 13 14 14 15 15 15 15 15 15 15 15 15 15 15 15 15 15 15 15 15 15 15 16 16 15 14 14 14 14 13 13 14 14 13 13 12 12 12 12 11 11
9 10 9 11 12 12 13 13 13 14 14 14 14 15 15 14 15 15 15 15 15 15 15 16 16 15 15 15 15 16 16 15 15 14 14 13 13 14 13 13 14 13 13 12 12 12 12 12 12
9 10 11 12 13 13 12 13 13 13 14 14 14 14 14 14 14 15 16 16 16 16 15 15 15 16 15 15 16 15 15 15 14 14 13 13 13 13 13 14 14 14 13 12 12 12 12 12 12
10 10 11 11 12 12 12 13 13 13 14 14 14 14 14 15 15 15 16 16 16 16 16 15 15 16 16 16 16 16 15 15 14 13 13 13 12 12 13 14 14 14 13 12 12 12 12 12 12
10 10 10 10 11 11 11 13 14 14 14 14 14 14 15 15 15 16 16 16 16 16 16 16 16 16 16 16 16 16 15 15 15 14 13 13 13 13 14 14 13 13 13 13 12 12 12 12 11
10 9 10 10 10 11 11 13 15 14 15 15 14 15 15 15 15 15 15 16 16 16 16 16 16 16 16 16 16 16 15 15 14 14 13 13 13 14 14 13 13 13 13 13 13 12 12 12 12
9 9 9 10 11 11 11 13 15 15 16 16 16 16 16 16 16 16 16 16 16 16 17 17 16 16 16 16 16 16 15 14 14 14 14 14 14 14 13 13 13 13 13 12 12 13 13 13 13
9 9 9 9 10 11 13 15 17 17 18 17 17 17 17 17 16 16 17 17 17 17 17 16 16 17 16 16 16 16 15 15 14 14 14 14 15 15 14 14 14 13 13 13 13 13 13 13 13
11 11 10 10 11 12 15 17 18 18 19 19 19 17 17 17 18 17 17 17 17 17 17 17 17 17 17 16 16 16 16 15 14 14 15 15 16 16 15 15 15 14 14 13 13 14 14 14 14
13 12 12 12 12 13 15 18 20 19 19 19 19 19 19 18 19 18 18 17 17 18 18 17 18 18 18 17 17 17 16 15 15 16 16 16 16 16 16 15 15 15 15 15 14 14 15 15 15
14 14 14 13 14 14 15 18 20 19 20 20 20 20 20 20 19 20 19 19 19 19 19 19 19 18 18 18 18 17 17 17 17 17 17 18 17 17 17 16 16 16 16 16 15 16 16 16 16
15 15 15 16 16 16 16 19 20 20 21 21 21 21 21 21 21 21 20 19 19 19 19 19 19 19 19 18 18 19 18 18 18 18 18 18 18 18 18 18 18 18 17 17 16 16 17 17 17
17 17 17 17 17 18 19 21 21 22 22 22 22 22 22 22 21 21 22 21 20 19 19 19 19 19 19 19 20 20 19 19 19 19 19 19 18 18 19 19 19 18 18 17 18 18 18 18 17

GEFSSGP_500_meanwind_264.txt.gz
Wind_Speed
2 2 2 2 3 2 2 2 2 2 2 1 1 1 1 1 1 1 1 1 1 1 1 1 2 2 3 3 4 4 4 4 4 4 4 4 4 4 4 4 5 5 5 5 5 5 5 5 5
2 2 2 3 3 3 3 2 2 1 1 0 0 0 1 0 1 1 2 2 2 2 2 2 2 3 4 5 5 5 4 4 5 5 5 5 5 5 5 6 6 6 6 5 5 5 6 5 5
2 3 3 4 4 3 3 2 1 0 0 1 1 2 2 2 2 2 2 2 2 2 2 2 3 4 4 5 5 5 4 4 5 5 6 6 6 6 6 6 7 7 7 7 6 6 6 6 6
3 4 5 5 5 5 4 3 2 1 1 2 2 2 2 3 3 3 3 3 3 3 3 3 3 4 4 5 5 5 5 5 5 5 5 6 6 6 7 7 7 8 8 8 7 7 7 7 7
4 4 5 5 5 4 3 4 3 3 3 3 3 3 4 4 4 4 4 4 4 4 4 4 5 5 5 5 6 6 6 6 6 6 6 7 7 7 7 7 7 8 8 8 8 8 8 8 8
5 5 5 6 5 4 4 4 4 4 4 4 4 5 5 4 4 4 5 5 5 5 6 5 5 6 6 6 6 6 7 7 7 7 7 8 8 8 8 8 8 9 9 9 9 9 8 8 8
6 5 5 5 6 5 5 5 5 5 5 5 6 6 6 5 5 5 6 6 6 6 7 6 6 7 7 7 7 8 7 7 8 7 7 8 8 8 8 9 9 9 9 9 9 9 8 8 9
6 6 6 6 6 6 6 6 7 7 7 7 7 7 7 7 6 7 7 7 7 8 7 7 7 8 8 8 8 8 8 8 8 7 8 8 9 8 8 9 9 9 9 9 9 9 9 9 9
6 6 6 6 7 7 7 7 7 8 8 7 7 7 8 8 7 8 8 8 7 8 8 9 9 9 10 10 9 9 8 7 7 8 8 8 8 8 9 9 9 9 9 10 10 10 10 10 9
6 7 6 7 7 6 7 7 7 8 8 8 8 8 8 9 8 8 8 8 8 8 9 9 9 10 10 10 9 9 9 8 7 8 8 8 8 9 9 9 9 10 10 10 10 10 10 10 9
7 7 6 6 6 6 6 7 8 8 8 8 8 8 9 9 9 9 9 9 9 9 9 9 10 10 10 10 9 9 9 9 9 9 9 9 9 9 9 10 10 10 10 10 10 10 10 10 10
7 6 7 7 7 7 7 7 8 8 8 8 8 9 9 9 9 9 9 10 10 10 10 11 10 10 10 10 10 10 9 9 10 10 10 10 10 10 10 10 10 10 10 10 10 10 10 10 10
6 6 6 7 7 6 7 7 7 8 8 8 8 9 9 9 10 10 10 10 10 10 10 10 11 11 11 11 11 10 10 11 10 10 10 10 10 10 10 10 11 11 10 9 10 10 10 10 10
7 7 7 7 7 6 6 7 7 8 8 9 9 9 9 9 9 10 10 10 10 10 10 10 11 11 11 12 11 11 11 11 11 11 10 11 11 11 11 11 11 10 10 10 10 10 10 11 11
7 7 7 6 6 6 6 7 8 8 9 9 9 9 9 9 10 10 11 11 11 11 11 11 11 11 11 11 12 12 12 12 12 11 11 11 11 11 11 11 11 10 10 11 10 10 11 11 11
7 7 7 6 6 6 7 7 8 8 9 9 9 9 10 10 10 11 11 12 12 12 12 12 12 12 12 12 12 13 13 13 13 12 12 12 12 11 11 11 11 11 11 11 11 11 11 11 11
8 7 6 6 7 7 7 7 7 8 9 9 9 9 10 10 11 11 12 12 12 12 13 13 13 12 13 13 13 14 14 14 14 14 13 13 13 12 12 12 11 11 11 12 12 12 12 11 11
7 7 6 6 6 7 7 7 8 8 9 10 9 9 10 11 11 11 12 13 13 13 13 14 14 13 13 14 14 14 14 14 14 14 14 13 13 13 13 12 12 12 12 12 12 12 12 11 11
7 7 7 7 7 7 7 8 8 9 9 9 9 9 10 11 12 12 12 13 13 14 14 14 14 14 14 14 14 14 14 14 13 13 12 12 12 12 13 13 13 13 12 13 12 12 12 11 11
8 7 7 7 7 8 8 8 8 8 8 9 9 10 10 11 12 12 12 13 14 14 14 14 14 14 14 14 14 13 13 13 12 12 11 11 11 11 12 13 13 13 12 13 12 11 11 11 11
8 7 7 8 8 8 8 8 8 8 8 9 10 10 11 12 12 12 12 12 13 13 13 13 14 13 13 13 13 13 13 13 13 12 12 11 11 11 12 12 12 12 12 12 12 11 11 11 11
8 7 7 8 8 8 9 8 7 7 8 9 10 11 12 12 13 13 13 13 13 13 13 14 13 13 13 13 13 13 14 13 13 13 13 12 12 12 13 13 12 12 12 12 11 11 11 11 11
8 7 8 9 9 9 9 8 7 8 9 9 10 11 12 13 13 13 14 14 14 13 14 14 14 14 13 13 13 14 14 14 14 14 14 13 14 13 13 13 12 12 12 12 11 11 12 12 12
9 9 9 10 10 10 10 10 9 9 10 11 11 12 13 13 14 14 15 15 15 15 15 14 14 15 14 14 14 14 14 14 14 14 14 14 13 13 13 13 13 12 12 12 12 12 12 13 13
9 9 10 11 11 11 11 11 10 10 11 13 13 13 14 15 15 16 16 16 16 15 15 14 14 15 15 14 14 14 15 14 14 14 15 15 14 14 14 13 13 12 12 12 13 13 13 13 13
10 10 11 11 12 11 11 12 11 12 13 14 15 15 15 16 17 16 17 17 17 17 17 16 15 16 15 15 15 15 15 15 15 15 15 16 16 15 15 14 14 13 13 13 13 13 14 14 14
11 12 12 12 13 13 13 13 14 14 15 15 15 16 16 17 18 17 17 18 17 17 17 17 16 16 15 15 15 15 15 15 15 15 16 16 17 17 16 15 14 14 13 13 13 14 14 15 16
12 13 13 13 14 14 15 15 15 16 16 16 16 17 17 18 19 18 18 18 19 18 17 17 16 15 15 15 15 15 15 16 16 16 17 17 17 17 16 16 15 14 14 14 15 15 16 16 17
14 14 15 15 16 16 17 16 17 17 17 17 18 18 18 19 19 19 19 19 19 19 18 17 16 16 16 16 16 16 17 17 18 17 18 17 18 17 16 16 16 16 16 16 16 17 17 17 17
15 15 16 16 17 18 19 18 18 18 18 19 19 20 19 19 20 20 19 19 19 19 18 18 17 17 17 17 17 18 18 18 18 18 18 18 18 17 17 17 17 17 16 16 17 18 18 17 17

GEFSSGP_500_meanwind_270.txt.gz
Wind_Speed
3 3 3 3 2 1 1 1 1 1 1 1 1 1 1 1 1 0 1 1 1 1 2 2 3 3 3 3 3 3 4 3 4 4 4 4 4 5 5 5 5 6 6 7 6 6 6 6 6
3 3 3 3 3 3 2 2 2 2 1 1 1 2 2 1 1 1 2 1 2 2 3 2 3 3 4 3 3 3 4 4 4 4 5 5 5 5 5 6 6 6 7 7 7 7 7 7 7
3 3 4 3 3 3 3 4 4 3 3 3 3 3 3 3 2 2 2 2 2 3 3 3 3 4 4 4 4 4 4 4 4 5 6 6 6 6 6 7 7 8 8 8 8 7 8 8 7
4 4 4 4 4 4 4 4 4 4 5 5 4 4 4 4 3 3 3 3 4 4 4 4 4 5 5 5 5 5 5 5 5 6 6 6 6 6 7 7 8 9 9 9 8 8 9 9 9
4 5 5 5 5 5 5 5 5 5 5 5 5 5 5 4 4 4 4 5 5 5 5 5 5 5 6 6 6 6 6 6 6 6 6 6 6 7 7 7 8 9 9 9 9 9 9 9 10
5 5 6 5 5 6 5 5 6 5 5 5 6 7 6 6 5 5 6 6 6 6 6 6 6 6 6 7 6 6 6 6 6 7 6 6 6 7 7 7 8 8 9 9 10 9 9 10 10
6 6 6 6 5 5 6 6 5 5 5 6 6 7 7 7 7 6 7 7 8 7 7 7 7 7 7 7 7 7 6 7 7 7 7 7 7 7 7 7 8 8 8 8 9 9 9 9 9
7 7 6 6 7 6 6 6 6 7 7 7 7 7 7 7 7 8 7 8 8 8 8 8 8 8 8 8 8 7 7 7 7 7 7 7 8 7 7 8 8 8 8 8 9 9 10 10 10
8 8 7 7 7 7 7 7 7 8 8 8 8 8 8 8 8 8 8 8 8 8 9 9 9 9 9 9 9 9 8 8 8 7 7 8 8 8 8 7 8 8 8 8 9 9 9 10 10
9 9 8 8 8 8 8 8 9 9 8 8 8 8 8 8 8 8 8 8 8 9 9 9 9 9 9 9 9 9 9 9 8 8 8 8 8 8 8 8 9 9 8 9 9 9 9 9 9
9 9 8 9 9 8 9 9 9 9 9 8 8 8 8 8 9 9 9 9 8 9 9 9 10 10 10 10 10 10 10 10 10 9 9 9 9 9 8 8 9 9 9 9 9 9 9 9 10
9 9 9 9 9 8 8 9 8 8 8 7 7 8 8 9 9 9 9 9 9 9 9 10 10 10 10 10 10 10 11 11 11 10 10 9 9 9 9 9 10 10 10 10 10 10 9 10 10
9 9 9 9 9 8 8 7 8 8 8 7 8 8 9 9 9 9 9 10 10 10 10 10 10 10 10 10 11 11 11 11 11 11 10 10 10 10 11 11 11 11 11 10 10 10 10 10 10
9 8 8 8 8 8 7 7 7 7 7 7 7 8 8 8 9 9 9 10 11 11 11 11 11 11 11 11 11 11 11 12 12 11 11 11 11 11 11 11 11 11 11 11 11 11 11 11 11
7 8 8 7 7 7 7 7 7 7 7 7 7 8 9 9 9 10 10 10 11 11 11 11 12 12 13 13 12 12 12 12 12 12 12 11 11 11 11 11 11 11 11 11 11 12 12 12 12
7 8 8 7 7 7 7 7 7 8 8 8 8 9 9 9 9 10 10 11 11 11 12 12 12 13 13 13 13 13 13 13 13 13 12 12 11 11 11 11 11 11 11 11 12 12 12 12 12
8 8 8 8 8 8 8 8 9 9 9 9 9 10 10 10 10 11 11 12 12 12 12 12 13 13 13 13 13 14 14 14 14 13 13 12 12 12 12 12 12 12 11 12 12 13 13 13 12
9 9 9 9 9 8 9 9 8 9 9 9 10 10 10 11 11 12 12 13 13 13 13 13 13 13 14 14 14 14 14 14 13 13 14 14 13 13 13 13 12 13 13 13 13 13 13 13 13
10 9 9 9 9 9 10 9 9 9 10 10 10 10 10 11 11 12 12 13 13 13 13 13 13 13 14 14 14 14 14 14 14 14 14 13 14 13 14 14 13 13 14 13 13 13 13 13 13
11 10 9 9 9 9 10 10 10 9 10 11 11 11 10 11 12 12 12 13 13 14 13 13 14 14 14 14 14 14 14 13 14 13 13 13 14 14 13 14 14 14 14 14 13 13 13 13 13
10 10 9 9 9 9 10 10 10 10 11 11 12 11 11 11 11 12 12 13 13 14 14 14 14 15 14 14 14 14 14 14 15 14 13 13 13 14 14 13 14 14 14 14 14 13 13 14 13
10 10 10 10 10 10 10 10 10 11 11 12 12 11 11 11 11 11 12 12 13 14 14 14 14 14 14 14 14 14 15 14 14 14 14 14 13 14 14 14 14 14 14 14 14 14 14 14 13
11 11 11 10 11 10 10 10 9 11 12 11 11 11 11 11 11 12 12 12 13 13 13 13 14 14 14 14 14 15 15 15 15 15 15 15 14 14 14 14 14 14 14 14 14 14 14 15 14
11 11 11 11 11 11 10 11 10 10 10 11 11 11 12 12 12 12 13 13 13 13 13 14 14 14 14 14 15 15 15 15 15 15 15 15 15 15 15 15 15 15 15 14 15 15 15 15 15
12 12 12 12 12 11 11 11 10 11 11 12 13 12 13 13 13 13 14 14 14 14 14 15 14 14 14 14 15 15 15 15 15 15 15 15 16 16 15 15 16 15 15 16 16 15 16 15 15
12 12 13 13 12 11 11 11 11 11 12 13 14 14 14 14 15 15 16 16 16 16 16 16 16 16 15 16 16 16 16 16 16 16 16 16 17 17 17 17 16 16 16 16 16 16 16 15 14
13 13 13 14 14 13 12 11 11 12 13 14 14 15 15 16 16 16 17 17 17 17 17 17 17 17 17 17 17 17 17 18 18 18 17 17 18 18 17 17 16 17 17 16 16 15 16 15 15
14 14 14 15 15 14 13 12 12 13 13 15 15 16 17 17 17 17 17 17 17 18 18 18 18 18 19 19 19 19 19 19 19 18 18 17 18 18 18 18 17 17 16 17 17 17 16 16 17
14 15 15 16 16 16 15 13 14 15 15 16 17 17 18 19 19 18 18 18 18 19 19 19 19 19 19 20 20 20 20 20 20 20 19 19 19 19 18 18 18 18 18 18 18 18 17 18 19
17 17 18 18 18 18 17 15 16 16 17 17 17 18 19 19 18 18 19 19 19 19 19 20 20 20 20 20 20 20 20 20 20 20 20 20 20 19 18 19 19 19 19 19 19 19 19 19 19